Time,TemperatureF,DewpointF,PressureIn,WindDirection,WindDirectionDegrees,WindSpeedMPH,WindSpeedGustMPH,Humidity,HourlyPrecipIn,Conditions,Clouds,dailyrainin,SolarRadiationWatts/m^2,SoftwareType,DateUTC
2013-04-01 00:02:00,49.0,14.0,-100.00,ESE,108,7.0,8.0,24,0.00,,,0.00,0.000000,,2013-04-01 06:02:00,
2013-04-01 00:12:00,49.0,14.0,-100.00,ESE,108,7.0,8.0,24,0.00,,,0.00,0.000000,,2013-04-01 06:12:00,
2013-04-01 00:22:00,49.0,14.0,-100.00,ESE,108,7.0,8.0,24,0.00,,,0.00,0.000000,,2013-04-01 06:22:00,
2013-04-01 00:32:00,49.0,14.0,-100.00,ESE,108,7.0,8.0,24,0.00,,,0.00,0.000000,,2013-04-01 06:32:00,
2013-04-01 00:52:00,48.0,12.0,-100.00,East,101,6.0,9.0,23,0.00,,,0.00,0.000000,,2013-04-01 06:52:00,
2013-04-01 01:02:00,48.0,12.0,-100.00,East,101,6.0,9.0,23,0.00,,,0.00,0.000000,,2013-04-01 07:02:00,
2013-04-01 01:12:00,48.0,12.0,-100.00,East,101,6.0,9.0,23,0.00,,,0.00,0.000000,,2013-04-01 07:12:00,
2013-04-01 01:22:00,48.0,12.0,-100.00,East,101,6.0,9.0,23,0.00,,,0.00,0.000000,,2013-04-01 07:22:00,
2013-04-01 01:31:00,48.0,12.0,-100.00,East,101,6.0,9.0,23,0.00,,,0.00,0.000000,,2013-04-01 07:31:00,
2013-04-01 01:53:00,47.0,12.0,-100.00,WSW,245,4.0,8.0,24,0.00,,,0.00,0.000000,,2013-04-01 07:53:00,
2013-04-01 02:02:00,47.0,12.0,-100.00,WSW,245,4.0,8.0,24,0.00,,,0.00,0.000000,,2013-04-01 08:02:00,
2013-04-01 02:12:00,47.0,12.0,-100.00,WSW,245,4.0,8.0,24,0.00,,,0.00,0.000000,,2013-04-01 08:12:00,
2013-04-01 02:22:00,47.0,12.0,-100.00,WSW,245,4.0,8.0,24,0.00,,,0.00,0.000000,,2013-04-01 08:22:00,
2013-04-01 02:32:00,47.0,12.0,-100.00,WSW,245,4.0,8.0,24,0.00,,,0.00,0.000000,,2013-04-01 08:32:00,
2013-04-01 02:53:00,48.0,22.0,-100.00,SW,221,3.0,13.0,36,0.00,,,0.00,0.000000,,2013-04-01 08:53:00,
2013-04-01 03:02:00,48.0,22.0,-100.00,SW,221,3.0,13.0,36,0.00,,,0.00,0.000000,,2013-04-01 09:02:00,
2013-04-01 03:12:00,48.0,22.0,-100.00,SW,221,3.0,13.0,36,0.00,,,0.00,0.000000,,2013-04-01 09:12:00,
2013-04-01 03:22:00,48.0,22.0,-100.00,SW,221,3.0,13.0,36,0.00,,,0.00,0.000000,,2013-04-01 09:22:00,
2013-04-01 03:32:00,48.0,22.0,-100.00,SW,221,3.0,13.0,36,0.00,,,0.00,0.000000,,2013-04-01 09:32:00,
2013-04-01 03:53:00,47.0,17.0,-100.00,SE,140,4.0,8.0,30,0.00,,,0.00,0.000000,,2013-04-01 09:53:00,
2013-04-01 04:03:00,47.0,17.0,-100.00,SE,140,4.0,8.0,30,0.00,,,0.00,0.000000,,2013-04-01 10:03:00,
2013-04-01 04:12:00,47.0,17.0,-100.00,SE,140,4.0,8.0,30,0.00,,,0.00,0.000000,,2013-04-01 10:12:00,
2013-04-01 04:22:00,47.0,17.0,-100.00,SE,140,4.0,8.0,30,0.00,,,0.00,0.000000,,2013-04-01 10:22:00,
2013-04-01 04:33:00,47.0,17.0,-100.00,SE,140,4.0,8.0,30,0.00,,,0.00,0.000000,,2013-04-01 10:33:00,
2013-04-01 04:53:00,43.0,14.0,-100.00,ENE,68,2.0,5.0,31,0.00,,,0.00,0.000000,,2013-04-01 10:53:00,
2013-04-01 05:02:00,43.0,14.0,-100.00,ENE,68,2.0,5.0,31,0.00,,,0.00,0.000000,,2013-04-01 11:02:00,
2013-04-01 05:12:00,43.0,14.0,-100.00,ENE,68,2.0,5.0,31,0.00,,,0.00,0.000000,,2013-04-01 11:12:00,
2013-04-01 05:22:00,43.0,14.0,-100.00,ENE,68,2.0,5.0,31,0.00,,,0.00,0.000000,,2013-04-01 11:22:00,
2013-04-01 05:32:00,43.0,14.0,-100.00,ENE,68,2.0,5.0,31,0.00,,,0.00,0.000000,,2013-04-01 11:32:00,
2013-04-01 05:53:00,44.0,21.0,-100.00,SSW,195,3.0,10.0,39,0.00,,,0.00,0.000000,,2013-04-01 11:53:00,
2013-04-01 06:02:00,44.0,21.0,-100.00,SSW,195,3.0,10.0,39,0.00,,,0.00,0.000000,,2013-04-01 12:02:00,
2013-04-01 06:12:00,44.0,21.0,-100.00,SSW,195,3.0,10.0,39,0.00,,,0.00,0.000000,,2013-04-01 12:12:00,
2013-04-01 06:22:00,44.0,21.0,-100.00,SSW,195,3.0,10.0,39,0.00,,,0.00,0.000000,,2013-04-01 12:22:00,
2013-04-01 06:32:00,44.0,21.0,-100.00,SSW,195,3.0,10.0,39,0.00,,,0.00,0.000000,,2013-04-01 12:32:00,
2013-04-01 06:53:00,40.0,16.0,-100.00,ENE,69,4.0,12.0,38,0.00,,,0.00,0.000000,,2013-04-01 12:53:00,
2013-04-01 07:02:00,40.0,16.0,-100.00,ENE,69,4.0,12.0,38,0.00,,,0.00,0.000000,,2013-04-01 13:02:00,
2013-04-01 07:12:00,40.0,16.0,-100.00,ENE,69,4.0,12.0,38,0.00,,,0.00,0.000000,,2013-04-01 13:12:00,
2013-04-01 07:22:00,40.0,16.0,-100.00,ENE,69,4.0,12.0,38,0.00,,,0.00,0.000000,,2013-04-01 13:22:00,
2013-04-01 07:52:00,42.0,16.0,-100.00,ENE,58,4.0,8.0,35,0.00,,,0.00,17.000000,,2013-04-01 13:52:00,
2013-04-01 08:03:00,42.0,16.0,-100.00,ENE,58,4.0,8.0,35,0.00,,,0.00,17.000000,,2013-04-01 14:03:00,
2013-04-01 08:53:00,45.0,21.0,-100.00,ENE,69,5.0,10.0,38,0.00,,,0.00,103.000000,,2013-04-01 14:53:00,
2013-04-01 09:02:00,45.0,21.0,-100.00,ENE,69,5.0,10.0,38,0.00,,,0.00,103.000000,,2013-04-01 15:02:00,
2013-04-01 09:12:00,45.0,21.0,-100.00,ENE,69,5.0,10.0,38,0.00,,,0.00,103.000000,,2013-04-01 15:12:00,
2013-04-01 09:22:00,45.0,21.0,-100.00,ENE,69,5.0,10.0,38,0.00,,,0.00,103.000000,,2013-04-01 15:22:00,
2013-04-01 09:33:00,45.0,21.0,-100.00,ENE,69,5.0,10.0,38,0.00,,,0.00,103.000000,,2013-04-01 15:33:00,
2013-04-01 09:53:00,44.0,30.0,-100.00,SW,233,17.0,27.0,58,0.00,,,0.00,316.000000,,2013-04-01 15:53:00,
2013-04-01 10:02:00,44.0,30.0,-100.00,SW,233,17.0,27.0,58,0.00,,,0.00,316.000000,,2013-04-01 16:02:00,
2013-04-01 10:12:00,44.0,30.0,-100.00,SW,233,17.0,27.0,58,0.00,,,0.00,316.000000,,2013-04-01 16:12:00,
2013-04-01 10:22:00,44.0,30.0,-100.00,SW,233,17.0,27.0,58,0.00,,,0.00,316.000000,,2013-04-01 16:22:00,
2013-04-01 10:32:00,44.0,30.0,-100.00,SW,233,17.0,27.0,58,0.00,,,0.00,316.000000,,2013-04-01 16:32:00,
2013-04-01 11:53:00,51.0,31.0,-100.00,NE,48,12.0,18.0,47,-99.99,,,0.00,821.000000,,2013-04-01 17:53:00,
2013-04-01 12:02:00,51.0,31.0,-100.00,NE,48,12.0,18.0,47,-99.99,,,0.00,821.000000,,2013-04-01 18:02:00,
2013-04-01 12:12:00,51.0,31.0,-100.00,NE,48,12.0,18.0,47,-99.99,,,0.00,821.000000,,2013-04-01 18:12:00,
2013-04-01 12:22:00,51.0,31.0,-100.00,NE,48,12.0,18.0,47,-99.99,,,0.00,821.000000,,2013-04-01 18:22:00,
2013-04-01 12:32:00,51.0,31.0,-100.00,NE,48,12.0,18.0,47,-99.99,,,0.00,821.000000,,2013-04-01 18:32:00,
2013-04-01 12:53:00,54.0,31.0,-100.00,NE,45,7.0,15.0,41,0.00,,,0.00,822.000000,,2013-04-01 18:53:00,
2013-04-01 13:03:00,54.0,31.0,-100.00,NE,45,7.0,15.0,41,0.00,,,0.00,822.000000,,2013-04-01 19:03:00,
2013-04-01 13:12:00,54.0,31.0,-100.00,NE,45,7.0,15.0,41,0.00,,,0.00,822.000000,,2013-04-01 19:12:00,
2013-04-01 13:22:00,54.0,31.0,-100.00,NE,45,7.0,15.0,41,0.00,,,0.00,822.000000,,2013-04-01 19:22:00,
2013-04-01 13:32:00,54.0,31.0,-100.00,NE,45,7.0,15.0,41,0.00,,,0.00,822.000000,,2013-04-01 19:32:00,
2013-04-01 13:53:00,54.0,34.0,-100.00,North,359,6.0,20.0,46,0.00,,,0.00,377.000000,,2013-04-01 19:53:00,
2013-04-01 14:02:00,54.0,34.0,-100.00,North,359,6.0,20.0,46,0.00,,,0.00,377.000000,,2013-04-01 20:02:00,
2013-04-01 14:12:00,54.0,34.0,-100.00,North,359,6.0,20.0,46,0.00,,,0.00,377.000000,,2013-04-01 20:12:00,
2013-04-01 14:22:00,54.0,34.0,-100.00,North,359,6.0,20.0,46,0.00,,,0.00,377.000000,,2013-04-01 20:22:00,
2013-04-01 14:32:00,54.0,34.0,-100.00,North,359,6.0,20.0,46,0.00,,,0.00,377.000000,,2013-04-01 20:32:00,
2013-04-01 14:52:00,56.0,30.0,-100.00,WSW,253,3.0,11.0,37,0.00,,,0.00,553.000000,,2013-04-01 20:52:00,
2013-04-01 15:02:00,56.0,30.0,-100.00,WSW,253,3.0,11.0,37,0.00,,,0.00,553.000000,,2013-04-01 21:02:00,
2013-04-01 15:11:00,56.0,30.0,-100.00,WSW,253,3.0,11.0,37,0.00,,,0.00,553.000000,,2013-04-01 21:11:00,
2013-04-01 15:22:00,56.0,30.0,-100.00,WSW,253,3.0,11.0,37,0.00,,,0.00,553.000000,,2013-04-01 21:22:00,
2013-04-01 15:32:00,56.0,30.0,-100.00,WSW,253,3.0,11.0,37,0.00,,,0.00,553.000000,,2013-04-01 21:32:00,
2013-04-01 15:53:00,59.0,25.0,-100.00,SSW,194,6.0,12.0,27,0.00,,,0.00,683.000000,,2013-04-01 21:53:00,
2013-04-01 16:02:00,59.0,25.0,-100.00,SSW,194,6.0,12.0,27,0.00,,,0.00,683.000000,,2013-04-01 22:02:00,
2013-04-01 16:12:00,59.0,25.0,-100.00,SSW,194,6.0,12.0,27,0.00,,,0.00,683.000000,,2013-04-01 22:12:00,
2013-04-01 16:22:00,59.0,25.0,-100.00,SSW,194,6.0,12.0,27,0.00,,,0.00,683.000000,,2013-04-01 22:22:00,
2013-04-01 16:32:00,59.0,25.0,-100.00,SSW,194,6.0,12.0,27,0.00,,,0.00,683.000000,,2013-04-01 22:32:00,
2013-04-01 16:52:00,58.0,20.0,-100.00,SSW,192,7.0,23.0,23,0.00,,,0.00,518.000000,,2013-04-01 22:52:00,
2013-04-01 17:02:00,58.0,20.0,-100.00,SSW,192,7.0,23.0,23,0.00,,,0.00,518.000000,,2013-04-01 23:02:00,
2013-04-01 17:12:00,58.0,20.0,-100.00,SSW,192,7.0,23.0,23,0.00,,,0.00,518.000000,,2013-04-01 23:12:00,
2013-04-01 17:22:00,58.0,20.0,-100.00,SSW,192,7.0,23.0,23,0.00,,,0.00,518.000000,,2013-04-01 23:22:00,
2013-04-01 17:32:00,58.0,20.0,-100.00,SSW,192,7.0,23.0,23,0.00,,,0.00,518.000000,,2013-04-01 23:32:00,
2013-04-01 17:53:00,56.0,23.0,-100.00,WSW,254,14.0,31.0,27,0.00,,,0.00,168.000000,,2013-04-01 23:53:00,
2013-04-01 18:02:00,56.0,23.0,-100.00,WSW,254,14.0,31.0,27,0.00,,,0.00,168.000000,,2013-04-02 00:02:00,
2013-04-01 18:12:00,56.0,23.0,-100.00,WSW,254,14.0,31.0,27,0.00,,,0.00,168.000000,,2013-04-02 00:12:00,
2013-04-01 18:22:00,56.0,23.0,-100.00,WSW,254,14.0,31.0,27,0.00,,,0.00,168.000000,,2013-04-02 00:22:00,
2013-04-01 18:32:00,56.0,23.0,-100.00,WSW,254,14.0,31.0,27,0.00,,,0.00,168.000000,,2013-04-02 00:32:00,
2013-04-01 18:53:00,54.0,18.0,-100.00,WSW,251,13.0,25.0,24,0.00,,,0.00,90.000000,,2013-04-02 00:53:00,
2013-04-01 19:02:00,54.0,18.0,-100.00,WSW,251,13.0,25.0,24,0.00,,,0.00,90.000000,,2013-04-02 01:02:00,
2013-04-01 19:12:00,54.0,18.0,-100.00,WSW,251,13.0,25.0,24,0.00,,,0.00,90.000000,,2013-04-02 01:12:00,
2013-04-01 19:22:00,54.0,18.0,-100.00,WSW,251,13.0,25.0,24,0.00,,,0.00,90.000000,,2013-04-02 01:22:00,
2013-04-01 19:32:00,54.0,18.0,-100.00,WSW,251,13.0,25.0,24,0.00,,,0.00,90.000000,,2013-04-02 01:32:00,
2013-04-01 19:53:00,52.0,18.0,-100.00,WNW,295,12.0,25.0,26,0.00,,,0.00,31.000000,,2013-04-02 01:53:00,
2013-04-01 20:02:00,52.0,18.0,-100.00,WNW,295,12.0,25.0,26,0.00,,,0.00,31.000000,,2013-04-02 02:02:00,
2013-04-01 20:12:00,52.0,18.0,-100.00,WNW,295,12.0,25.0,26,0.00,,,0.00,31.000000,,2013-04-02 02:12:00,
2013-04-01 20:22:00,52.0,18.0,-100.00,WNW,295,12.0,25.0,26,0.00,,,0.00,31.000000,,2013-04-02 02:22:00,
2013-04-01 20:53:00,48.0,27.0,-100.00,NNW,346,8.0,12.0,43,0.00,,,0.00,1.000000,,2013-04-02 02:53:00,
2013-04-01 21:02:00,48.0,27.0,-100.00,NNW,346,8.0,12.0,43,0.00,,,0.00,1.000000,,2013-04-02 03:02:00,
2013-04-01 21:12:00,48.0,27.0,-100.00,NNW,346,8.0,12.0,43,0.00,,,0.00,1.000000,,2013-04-02 03:12:00,
2013-04-01 21:22:00,48.0,27.0,-100.00,NNW,346,8.0,12.0,43,0.00,,,0.00,1.000000,,2013-04-02 03:22:00,
2013-04-01 21:33:00,48.0,27.0,-100.00,NNW,346,8.0,12.0,43,0.00,,,0.00,1.000000,,2013-04-02 03:33:00,
2013-04-01 21:53:00,44.0,30.0,-100.00,NE,53,13.0,20.0,58,0.00,,,0.00,0.000000,,2013-04-02 03:53:00,
2013-04-01 22:02:00,44.0,30.0,-100.00,NE,53,13.0,20.0,58,0.00,,,0.00,0.000000,,2013-04-02 04:02:00,
2013-04-01 22:13:00,44.0,30.0,-100.00,NE,53,13.0,20.0,58,0.00,,,0.00,0.000000,,2013-04-02 04:13:00,
2013-04-01 22:22:00,44.0,30.0,-100.00,NE,53,13.0,20.0,58,0.00,,,0.00,0.000000,,2013-04-02 04:22:00,
2013-04-01 22:32:00,44.0,30.0,-100.00,NE,53,13.0,20.0,58,0.00,,,0.00,0.000000,,2013-04-02 04:32:00,
2013-04-01 22:53:00,42.0,30.0,-100.00,NE,53,8.0,16.0,61,0.00,,,0.00,0.000000,,2013-04-02 04:53:00,
2013-04-01 23:02:00,42.0,30.0,-100.00,NE,53,8.0,16.0,61,0.00,,,0.00,0.000000,,2013-04-02 05:02:00,
2013-04-01 23:12:00,42.0,30.0,-100.00,NE,53,8.0,16.0,61,0.00,,,0.00,0.000000,,2013-04-02 05:12:00,
2013-04-01 23:22:00,42.0,30.0,-100.00,NE,53,8.0,16.0,61,0.00,,,0.00,0.000000,,2013-04-02 05:22:00,
2013-04-01 23:32:00,42.0,30.0,-100.00,NE,53,8.0,16.0,61,0.00,,,0.00,0.000000,,2013-04-02 05:32:00,
2013-04-01 23:52:00,40.0,29.0,-100.00,ESE,104,5.0,10.0,65,0.00,,,0.00,0.000000,,2013-04-02 05:52:00,